TimePST,TemperatureF,Dew PointF,Humidity,Sea Level PressureIn,VisibilityMPH,Wind Direction,Wind SpeedMPH,Gust SpeedMPH,PrecipitationIn,Events,Conditions,WindDirDegrees,DateUTC
12:55 AM,17.1,15.1,92,30.12,6.0,Calm,Calm,-,N/A,,Clear,0,2013-11-04 08:55:00
1:55 AM,18.0,15.1,88,30.12,8.0,Calm,Calm,-,N/A,,Clear,0,2013-11-04 09:55:00
2:55 AM,15.1,10.9,84,30.13,5.0,Calm,Calm,-,N/A,,Clear,0,2013-11-04 10:55:00
3:55 AM,12.9,10.0,88,30.14,9.0,Calm,Calm,-,N/A,,Clear,0,2013-11-04 11:55:00
4:55 AM,14.0,9.0,80,30.17,10.0,Calm,Calm,-,N/A,,Clear,0,2013-11-04 12:55:00
5:55 AM,15.1,12.0,88,30.18,4.0,Calm,Calm,-,N/A,,Clear,0,2013-11-04 13:55:00
6:55 AM,10.9,7.0,84,30.20,4.0,East,4.6,-,N/A,,Clear,90,2013-11-04 14:55:00
7:55 AM,18.0,12.9,81,30.22,8.0,Calm,Calm,-,N/A,,Clear,0,2013-11-04 15:55:00
8:55 AM,27.0,19.9,75,30.20,10.0,Calm,Calm,-,N/A,,Clear,0,2013-11-04 16:55:00
9:55 AM,32.0,21.9,66,30.19,10.0,Calm,Calm,-,N/A,,Clear,0,2013-11-04 17:55:00
10:55 AM,39.0,21.9,50,30.19,10.0,Calm,Calm,-,N/A,,Clear,0,2013-11-04 18:55:00
11:55 AM,42.1,19.9,41,30.16,10.0,Calm,Calm,-,N/A,,Clear,0,2013-11-04 19:55:00
12:55 PM,44.1,19.0,37,30.14,10.0,Calm,Calm,-,N/A,,Clear,0,2013-11-04 20:55:00
1:55 PM,46.0,18.0,33,30.13,10.0,West,6.9,-,N/A,,Partly Cloudy,270,2013-11-04 21:55:00
2:55 PM,46.0,18.0,33,30.14,10.0,NNW,6.9,-,N/A,,Clear,330,2013-11-04 22:55:00
3:55 PM,45.0,19.9,37,30.16,10.0,NNW,6.9,-,N/A,,Mostly Cloudy,340,2013-11-04 23:55:00
4:55 PM,41.0,19.9,43,30.17,10.0,NW,5.8,-,N/A,,Partly Cloudy,320,2013-11-05 00:55:00
5:55 PM,35.1,19.0,52,30.20,10.0,NW,5.8,-,N/A,,Clear,310,2013-11-05 01:55:00
6:55 PM,34.0,19.9,56,30.25,10.0,Calm,Calm,-,N/A,,Clear,0,2013-11-05 02:55:00
7:55 PM,30.0,19.9,66,30.24,10.0,SE,6.9,-,N/A,,Scattered Clouds,140,2013-11-05 03:55:00
8:55 PM,25.0,19.0,78,30.25,9.0,SSE,3.5,-,N/A,,Clear,150,2013-11-05 04:55:00
9:55 PM,27.0,18.0,69,30.25,7.0,Calm,Calm,-,N/A,,Overcast,0,2013-11-05 05:55:00
10:55 PM,28.0,19.0,69,30.23,10.0,South,4.6,-,N/A,,Overcast,190,2013-11-05 06:55:00
11:55 PM,27.0,19.0,72,30.22,10.0,Calm,Calm,-,N/A,,Clear,0,2013-11-05 07:55:00